When you browse on this site, cookies collect data to enhance your experience and personalize the content and advertising you see.
Visit our Privacy Policy to learn more. By continuing to use the site, you agree to this use of cookies and data.
EN

Hourly Weather Juticalpa

Today, 14 August, Friday

Time Temperature Precipitation Wind Pressure Humidity
00:00 +21°C° 0 mm 0 mps 727 mmHg 96%
01:00 +21°C° 0 mm 0 mps 726 mmHg 96%
02:00 +21°C° 0 mm 0 mps 726 mmHg 97%
03:00 +21°C° 0 mm 0 mps 725 mmHg 97%
04:00 +21°C° 0 mm 0 mps 725 mmHg 97%
05:00 +21°C° 0 mm 0 mps 726 mmHg 96%
06:00 +21°C° 0 mm 0 mps 726 mmHg 96%
07:00 +23°C° 0 mm 0 mps 726 mmHg 88%
08:00 +25°C° 0 mm 0 mps 727 mmHg 79%
09:00 +28°C° 0 mm 0 mps 727 mmHg 71%
10:00 +30°C° 1.6 mm 1 mps 727 mmHg 74%
11:00 +30°C° 1.6 mm 2 mps 727 mmHg 78%
12:00 +30°C° 1.6 mm 3 mps 727 mmHg 81%
13:00 +29°C° 1.5 mm 2 mps 726 mmHg 84%
14:00 +28°C° 1.5 mm 2 mps 725 mmHg 87%
15:00 +27°C° 1.5 mm 1 mps 725 mmHg 90%
16:00 +27°C° 0.2 mm 1 mps 725 mmHg 91%
17:00 +26°C° 0.2 mm 1 mps 725 mmHg 93%
18:00 +24°C° 0.2 mm 0 mps 726 mmHg 94%
19:00 +23°C° 0 mm 0 mps 726 mmHg 94%
20:00 +23°C° 0 mm 0 mps 726 mmHg 95%
21:00 +22°C° 0 mm 0 mps 726 mmHg 95%
22:00 +22°C° 0 mm 0 mps 726 mmHg 96%
23:00 +22°C° 0 mm 0 mps 726 mmHg 96%

Tomorrow, 15 August, Saturday

Time Temperature Precipitation Wind Pressure Humidity
00:00 +22°C° 0 mm 0 mps 726 mmHg 96%
01:00 +22°C° 0 mm 0 mps 726 mmHg 96%
02:00 +21°C° 0 mm 0 mps 725 mmHg 96%
03:00 +21°C° 0 mm 0 mps 725 mmHg 96%
04:00 +21°C° 0 mm 0 mps 725 mmHg 96%
05:00 +21°C° 0 mm 0 mps 725 mmHg 96%
06:00 +21°C° 0 mm 0 mps 725 mmHg 96%
07:00 +23°C° 0 mm 0 mps 726 mmHg 89%
08:00 +27°C° 0 mm 1 mps 726 mmHg 83%
09:00 +29°C° 0 mm 1 mps 727 mmHg 76%
10:00 +30°C° 0.1 mm 1 mps 726 mmHg 70%
11:00 +31°C° 0.1 mm 2 mps 726 mmHg 64%
12:00 +32°C° 0.1 mm 2 mps 726 mmHg 59%
13:00 +33°C° 0.2 mm 3 mps 726 mmHg 59%
14:00 +33°C° 0.2 mm 3 mps 725 mmHg 59%
15:00 +33°C° 0.2 mm 3 mps 724 mmHg 60%
16:00 +31°C° 0.1 mm 2 mps 725 mmHg 66%
17:00 +29°C° 0.1 mm 2 mps 725 mmHg 73%
18:00 +27°C° 0.1 mm 1 mps 725 mmHg 80%
19:00 +26°C° 0.2 mm 1 mps 726 mmHg 84%
20:00 +23°C° 0.2 mm 0 mps 726 mmHg 89%
21:00 +22°C° 0.2 mm 0 mps 727 mmHg 93%
22:00 +22°C° 0.1 mm 0 mps 727 mmHg 94%
23:00 +21°C° 0.1 mm 0 mps 727 mmHg 95%

Day after tomorrow, 16 August, Sunday

Time Temperature Precipitation Wind Pressure Humidity
00:00 +21°C° 0.1 mm 0 mps 727 mmHg 96%
01:00 +21°C° 0 mm 0 mps 727 mmHg 96%
02:00 +21°C° 0 mm 0 mps 726 mmHg 97%
03:00 +21°C° 0 mm 0 mps 726 mmHg 97%
04:00 +21°C° 0.2 mm 0 mps 726 mmHg 97%
05:00 +21°C° 0.2 mm 0 mps 726 mmHg 97%
06:00 +21°C° 0.2 mm 0 mps 727 mmHg 97%
07:00 +22°C° 0.1 mm 0 mps 727 mmHg 94%
08:00 +23°C° 0.1 mm 0 mps 727 mmHg 91%
09:00 +24°C° 0.1 mm 0 mps 728 mmHg 88%
10:00 +28°C° 0.2 mm 1 mps 727 mmHg 80%
11:00 +30°C° 0.2 mm 1 mps 727 mmHg 72%
12:00 +31°C° 0.2 mm 2 mps 727 mmHg 65%
13:00 +30°C° 0.6 mm 1 mps 726 mmHg 70%
14:00 +30°C° 0.6 mm 1 mps 726 mmHg 75%
15:00 +29°C° 0.6 mm 1 mps 725 mmHg 80%
16:00 +28°C° 0.9 mm 1 mps 726 mmHg 84%
17:00 +27°C° 0.9 mm 1 mps 726 mmHg 88%
18:00 +25°C° 0.9 mm 1 mps 726 mmHg 92%
19:00 +25°C° 0.1 mm 1 mps 727 mmHg 92%
20:00 +23°C° 0.1 mm 0 mps 727 mmHg 93%
21:00 +22°C° 0.1 mm 0 mps 728 mmHg 94%
22:00 +22°C° 0 mm 0 mps 728 mmHg 94%
23:00 +22°C° 0 mm 0 mps 728 mmHg 94%

17 August, Monday

Time Temperature Precipitation Wind Pressure Humidity
00:00 +22°C° 0 mm 0 mps 728 mmHg 94%
01:00 +21°C° 0 mm 0 mps 727 mmHg 95%
02:00 +21°C° 0 mm 0 mps 727 mmHg 95%
03:00 +21°C° 0 mm 0 mps 727 mmHg 95%
04:00 +21°C° 0 mm 0 mps 727 mmHg 95%
05:00 +21°C° 0 mm 0 mps 727 mmHg 95%
06:00 +20°C° 0 mm 0 mps 727 mmHg 95%
07:00 +23°C° 0 mm 0 mps 727 mmHg 85%
08:00 +25°C° 0 mm 0 mps 728 mmHg 75%
09:00 +28°C° 0 mm 0 mps 728 mmHg 65%
10:00 +29°C° 0 mm 0 mps 728 mmHg 61%
11:00 +32°C° 0 mm 1 mps 727 mmHg 57%
12:00 +33°C° 0 mm 1 mps 727 mmHg 53%
13:00 +33°C° 0.1 mm 1 mps 726 mmHg 53%
14:00 +33°C° 0.1 mm 1 mps 726 mmHg 54%
15:00 +33°C° 0.1 mm 1 mps 725 mmHg 54%
16:00 +31°C° 0.5 mm 1 mps 726 mmHg 64%
17:00 +29°C° 0.5 mm 1 mps 726 mmHg 74%
18:00 +27°C° 0.5 mm 1 mps 726 mmHg 84%
19:00 +26°C° 0.4 mm 1 mps 727 mmHg 87%
20:00 +25°C° 0.4 mm 1 mps 727 mmHg 90%
21:00 +22°C° 0.4 mm 0 mps 728 mmHg 93%
22:00 +22°C° 0 mm 0 mps 727 mmHg 94%
23:00 +22°C° 0 mm 0 mps 727 mmHg 94%

18 August, Tuesday

Time Temperature Precipitation Wind Pressure Humidity
00:00 +22°C° 0 mm 0 mps 727 mmHg 95%
01:00 +21°C° 0 mm 0 mps 726 mmHg 96%
02:00 +21°C° 0 mm 0 mps 726 mmHg 96%
03:00 +21°C° 0 mm 0 mps 726 mmHg 96%
04:00 +21°C° 0 mm 0 mps 726 mmHg 96%
05:00 +21°C° 0 mm 0 mps 726 mmHg 97%
06:00 +21°C° 0 mm 0 mps 726 mmHg 97%
07:00 +23°C° 0 mm 0 mps 727 mmHg 90%
08:00 +25°C° 0 mm 0 mps 727 mmHg 83%
09:00 +27°C° 0 mm 0 mps 728 mmHg 76%
10:00 +28°C° 0.2 mm 0 mps 727 mmHg 74%
11:00 +31°C° 0.2 mm 1 mps 727 mmHg 71%
12:00 +32°C° 0.2 mm 1 mps 726 mmHg 68%
13:00 +32°C° 1.8 mm 1 mps 726 mmHg 68%
14:00 +32°C° 1.8 mm 1 mps 726 mmHg 68%
15:00 +32°C° 1.8 mm 1 mps 725 mmHg 69%
16:00 +30°C° 1.3 mm 1 mps 725 mmHg 75%
17:00 +29°C° 1.3 mm 1 mps 726 mmHg 81%
18:00 +27°C° 1.3 mm 1 mps 726 mmHg 87%
19:00 +26°C° 0.6 mm 1 mps 726 mmHg 89%
20:00 +26°C° 0.6 mm 1 mps 727 mmHg 91%
21:00 +25°C° 0.6 mm 1 mps 727 mmHg 93%
22:00 +23°C° 0 mm 0 mps 727 mmHg 94%
23:00 +22°C° 0 mm 0 mps 726 mmHg 95%

19 August, Wednesday

Time Temperature Precipitation Wind Pressure Humidity
00:00 +22°C° 0 mm 0 mps 726 mmHg 96%
01:00 +22°C° 0 mm 0 mps 726 mmHg 97%
02:00 +21°C° 0 mm 0 mps 726 mmHg 97%
03:00 +21°C° 0 mm 0 mps 725 mmHg 97%
04:00 +22°C° 0 mm 0 mps 726 mmHg 97%
05:00 +22°C° 0 mm 0 mps 726 mmHg 97%
06:00 +22°C° 0 mm 0 mps 726 mmHg 97%
07:00 +24°C° 0 mm 0 mps 727 mmHg 90%
08:00 +26°C° 0 mm 0 mps 727 mmHg 84%
09:00 +29°C° 0 mm 1 mps 727 mmHg 77%
10:00 +30°C° 0 mm 1 mps 727 mmHg 73%
11:00 +31°C° 0 mm 1 mps 726 mmHg 68%
12:00 +32°C° 0 mm 1 mps 726 mmHg 64%
13:00 +32°C° 0.2 mm 1 mps 725 mmHg 63%
14:00 +34°C° 0.2 mm 2 mps 725 mmHg 61%
15:00 +34°C° 0.2 mm 2 mps 724 mmHg 60%
16:00 +31°C° 0.7 mm 1 mps 724 mmHg 69%
17:00 +29°C° 0.7 mm 1 mps 725 mmHg 78%
18:00 +27°C° 0.7 mm 1 mps 725 mmHg 86%
19:00 +26°C° 1.2 mm 1 mps 725 mmHg 89%
20:00 +26°C° 1.2 mm 1 mps 726 mmHg 92%
21:00 +23°C° 1.2 mm 0 mps 726 mmHg 95%
22:00 +22°C° 0.1 mm 0 mps 726 mmHg 96%
23:00 +22°C° 0.1 mm 0 mps 726 mmHg 96%
Show more